User: anonymous   Login
Location: Unspecified
(0.0000°N, 0.0000°E)
Time: 08:58:22
(UTC+00:00)
Language:

USA-167 - Orbit

View from above orbital plane
View from above orbital plane
View from above satellite
View from above satellite

Ground track
Ground track

The orbit data is extracted from the following two-line orbital elements,

1 27691U 03008A   17107.96782847 0.00000000  00000-0  00000-0 0    06
2 27691   4.4977  64.8897 0003891 241.4063 118.5633  1.00270000    08
Epoch (UTC): 17 April 2017 23:13:40
Eccentricity: 0.0003891
inclination: 4.4977°
perigee height: 35770 km
apogee height: 35803 km
right ascension of ascending node: 64.8897°
argument of perigee: 241.4063°
revolutions per day: 1.00270000
mean anomaly at epoch: 118.5633°
orbit number at epoch: 0

The dashed part of the orbit path shows where the satellite is in the earth's shadow,  

DLR